When you browse on this site, cookies collect data to enhance your experience and personalize the content and advertising you see.
Visit our Privacy Policy to learn more. By continuing to use the site, you agree to this use of cookies and data.
EN

Hourly Weather Bocas del Toro

Today, 10 July, Friday

Time Temperature Precipitation Wind Pressure Humidity
00:00 +28°C° 0.9 mm 5 mps 758 mmHg 88%
01:00 +28°C° 0.9 mm 5 mps 758 mmHg 88%
02:00 +27°C° 1.4 mm 5 mps 758 mmHg 87%
03:00 +27°C° 1.4 mm 5 mps 757 mmHg 87%
04:00 +27°C° 1.4 mm 4 mps 757 mmHg 86%
05:00 +27°C° 1 mm 4 mps 757 mmHg 85%
06:00 +27°C° 1 mm 4 mps 758 mmHg 84%
07:00 +28°C° 1 mm 3 mps 758 mmHg 83%
08:00 +28°C° 1.2 mm 4 mps 758 mmHg 81%
09:00 +29°C° 1.2 mm 4 mps 759 mmHg 80%
10:00 +30°C° 1.2 mm 4 mps 759 mmHg 78%
11:00 +30°C° 0.9 mm 4 mps 759 mmHg 77%
12:00 +30°C° 0.9 mm 4 mps 759 mmHg 77%
13:00 +30°C° 0.9 mm 4 mps 759 mmHg 76%
14:00 +30°C° 0.7 mm 4 mps 758 mmHg 76%
15:00 +30°C° 0.7 mm 3 mps 758 mmHg 76%
16:00 +30°C° 0.7 mm 3 mps 757 mmHg 76%
17:00 +30°C° 0.5 mm 3 mps 757 mmHg 79%
18:00 +29°C° 0.5 mm 3 mps 758 mmHg 81%
19:00 +28°C° 0.5 mm 3 mps 758 mmHg 84%
20:00 +28°C° 0.4 mm 3 mps 759 mmHg 84%
21:00 +28°C° 0.4 mm 3 mps 759 mmHg 84%
22:00 +28°C° 0.4 mm 3 mps 759 mmHg 84%
23:00 +27°C° 0.4 mm 3 mps 759 mmHg 84%

Tomorrow, 11 July, Saturday

Time Temperature Precipitation Wind Pressure Humidity
00:00 +27°C° 0.4 mm 3 mps 759 mmHg 83%
01:00 +27°C° 0.4 mm 4 mps 759 mmHg 83%
02:00 +27°C° 0.4 mm 4 mps 758 mmHg 82%
03:00 +27°C° 0.4 mm 4 mps 758 mmHg 82%
04:00 +27°C° 0.4 mm 4 mps 757 mmHg 82%
05:00 +27°C° 1 mm 4 mps 758 mmHg 82%
06:00 +27°C° 1 mm 4 mps 758 mmHg 82%
07:00 +27°C° 1 mm 4 mps 758 mmHg 82%
08:00 +27°C° 1 mm 4 mps 758 mmHg 83%
09:00 +27°C° 1 mm 4 mps 759 mmHg 84%
10:00 +27°C° 1 mm 4 mps 759 mmHg 84%
11:00 +27°C° 0.7 mm 3 mps 759 mmHg 84%
12:00 +28°C° 0.7 mm 3 mps 758 mmHg 83%
13:00 +28°C° 0.7 mm 3 mps 758 mmHg 82%
14:00 +28°C° 0.2 mm 3 mps 758 mmHg 81%
15:00 +29°C° 0.2 mm 4 mps 757 mmHg 80%
16:00 +29°C° 0.2 mm 4 mps 757 mmHg 79%
17:00 +29°C° 0.3 mm 4 mps 757 mmHg 81%
18:00 +29°C° 0.3 mm 4 mps 757 mmHg 82%
19:00 +28°C° 0.3 mm 4 mps 757 mmHg 84%
20:00 +28°C° 0.6 mm 4 mps 758 mmHg 84%
21:00 +28°C° 0.6 mm 4 mps 758 mmHg 85%
22:00 +28°C° 0.6 mm 4 mps 759 mmHg 85%
23:00 +28°C° 0.7 mm 4 mps 759 mmHg 84%

Day after tomorrow, 12 July, Sunday

Time Temperature Precipitation Wind Pressure Humidity
00:00 +27°C° 0.7 mm 4 mps 758 mmHg 83%
01:00 +27°C° 0.7 mm 3 mps 758 mmHg 83%
02:00 +27°C° 1.4 mm 4 mps 758 mmHg 83%
03:00 +27°C° 1.4 mm 4 mps 758 mmHg 83%
04:00 +27°C° 1.4 mm 5 mps 757 mmHg 83%
05:00 +27°C° 0.6 mm 5 mps 757 mmHg 84%
06:00 +27°C° 0.6 mm 5 mps 757 mmHg 85%
07:00 +27°C° 0.6 mm 5 mps 757 mmHg 86%
08:00 +28°C° 0.1 mm 4 mps 758 mmHg 82%
09:00 +29°C° 0.1 mm 4 mps 758 mmHg 78%
10:00 +30°C° 0.1 mm 3 mps 759 mmHg 74%
11:00 +30°C° 0.1 mm 3 mps 758 mmHg 73%
12:00 +32°C° 0.1 mm 4 mps 758 mmHg 71%
13:00 +32°C° 0.1 mm 4 mps 758 mmHg 70%
14:00 +30°C° 1 mm 4 mps 757 mmHg 75%
15:00 +30°C° 1 mm 4 mps 757 mmHg 79%
16:00 +29°C° 1 mm 4 mps 756 mmHg 84%
17:00 +29°C° 0.8 mm 4 mps 757 mmHg 85%
18:00 +28°C° 0.8 mm 3 mps 757 mmHg 85%
19:00 +28°C° 0.8 mm 3 mps 757 mmHg 86%
20:00 +28°C° 0.2 mm 2 mps 758 mmHg 86%
21:00 +28°C° 0.2 mm 2 mps 759 mmHg 85%
22:00 +28°C° 0.2 mm 1 mps 759 mmHg 84%
23:00 +28°C° 0.1 mm 2 mps 759 mmHg 85%

13 July, Monday

Time Temperature Precipitation Wind Pressure Humidity
00:00 +27°C° 0.1 mm 3 mps 759 mmHg 85%
01:00 +27°C° 0.1 mm 3 mps 758 mmHg 85%
02:00 +27°C° 0.1 mm 3 mps 758 mmHg 86%
03:00 +27°C° 0.1 mm 4 mps 758 mmHg 87%
04:00 +27°C° 0.1 mm 4 mps 758 mmHg 87%
05:00 +27°C° 0.7 mm 4 mps 758 mmHg 87%
06:00 +27°C° 0.7 mm 3 mps 758 mmHg 86%
07:00 +27°C° 0.7 mm 3 mps 758 mmHg 85%
08:00 +27°C° 0.5 mm 2 mps 759 mmHg 82%
09:00 +28°C° 0.5 mm 2 mps 759 mmHg 78%
10:00 +29°C° 0.5 mm 1 mps 759 mmHg 75%
11:00 +30°C° 0.1 mm 1 mps 759 mmHg 73%
12:00 +30°C° 0.1 mm 1 mps 759 mmHg 71%
13:00 +31°C° 0.1 mm 1 mps 758 mmHg 70%
14:00 +31°C° 0.2 mm 1 mps 758 mmHg 70%
15:00 +31°C° 0.2 mm 1 mps 757 mmHg 71%
16:00 +30°C° 0.2 mm 1 mps 757 mmHg 72%
17:00 +30°C° 0.2 mm 1 mps 757 mmHg 75%
18:00 +29°C° 0.2 mm 1 mps 757 mmHg 78%
19:00 +28°C° 0.2 mm 1 mps 758 mmHg 80%
20:00 +28°C° 0.1 mm 1 mps 758 mmHg 81%
21:00 +28°C° 0.1 mm 1 mps 758 mmHg 82%
22:00 +28°C° 0.1 mm 1 mps 759 mmHg 82%
23:00 +28°C° 0.9 mm 2 mps 759 mmHg 84%

14 July, Tuesday

Time Temperature Precipitation Wind Pressure Humidity
00:00 +28°C° 0.9 mm 2 mps 758 mmHg 85%
01:00 +27°C° 0.9 mm 2 mps 758 mmHg 86%
02:00 +27°C° 0.7 mm 2 mps 758 mmHg 86%
03:00 +27°C° 0.7 mm 2 mps 758 mmHg 86%
04:00 +27°C° 0.7 mm 2 mps 757 mmHg 86%
05:00 +27°C° 1.3 mm 2 mps 757 mmHg 86%
06:00 +27°C° 1.3 mm 2 mps 758 mmHg 86%
07:00 +27°C° 1.3 mm 2 mps 758 mmHg 86%
08:00 +28°C° 0.3 mm 2 mps 758 mmHg 80%
09:00 +29°C° 0.3 mm 1 mps 759 mmHg 74%
10:00 +31°C° 0.3 mm 1 mps 759 mmHg 69%
11:00 +31°C° 0.3 mm 1 mps 759 mmHg 70%
12:00 +31°C° 0.3 mm 2 mps 758 mmHg 71%
13:00 +31°C° 0.3 mm 3 mps 758 mmHg 72%
14:00 +31°C° 0.5 mm 2 mps 758 mmHg 73%
15:00 +31°C° 0.5 mm 2 mps 757 mmHg 74%
16:00 +30°C° 0.5 mm 2 mps 757 mmHg 76%
17:00 +30°C° 0.2 mm 2 mps 757 mmHg 78%
18:00 +29°C° 0.2 mm 2 mps 757 mmHg 81%
19:00 +29°C° 0.2 mm 2 mps 757 mmHg 83%
20:00 +29°C° 0 mm 2 mps 758 mmHg 84%
21:00 +28°C° 0 mm 2 mps 758 mmHg 85%
22:00 +28°C° 0 mm 2 mps 758 mmHg 86%
23:00 +28°C° 0.1 mm 2 mps 758 mmHg 86%

15 July, Wednesday

Time Temperature Precipitation Wind Pressure Humidity
00:00 +28°C° 0.1 mm 2 mps 758 mmHg 86%
01:00 +28°C° 0.1 mm 1 mps 758 mmHg 87%
02:00 +27°C° 0.5 mm 1 mps 758 mmHg 87%
03:00 +27°C° 0.5 mm 1 mps 757 mmHg 86%
04:00 +27°C° 0.5 mm 1 mps 757 mmHg 86%
05:00 +27°C° 0.8 mm 1 mps 757 mmHg 85%
06:00 +27°C° 0.8 mm 1 mps 757 mmHg 84%
07:00 +27°C° 0.8 mm 1 mps 757 mmHg 83%
08:00 +28°C° 0.3 mm 1 mps 758 mmHg 79%
09:00 +29°C° 0.3 mm 1 mps 758 mmHg 75%
10:00 +30°C° 0.3 mm 1 mps 758 mmHg 71%
11:00 +31°C° 0.1 mm 1 mps 758 mmHg 70%
12:00 +31°C° 0.1 mm 2 mps 758 mmHg 70%
13:00 +31°C° 0.1 mm 2 mps 758 mmHg 70%
14:00 +30°C° 1.4 mm 2 mps 757 mmHg 74%
15:00 +30°C° 1.4 mm 3 mps 757 mmHg 78%
16:00 +29°C° 1.4 mm 3 mps 757 mmHg 81%
17:00 +29°C° 1.3 mm 3 mps 757 mmHg 82%
18:00 +29°C° 1.3 mm 3 mps 757 mmHg 83%
19:00 +28°C° 1.3 mm 2 mps 757 mmHg 84%
20:00 +28°C° 0.1 mm 2 mps 758 mmHg 84%
21:00 +28°C° 0.1 mm 2 mps 758 mmHg 85%
22:00 +28°C° 0.1 mm 2 mps 759 mmHg 85%
23:00 +27°C° 0.4 mm 3 mps 758 mmHg 85%
Show more